FIN5DL EFHK-LSZH

Flight info

Callsign FIN5DL
Flight time 2h 37m
Altitude 34000
Route VALOX DCT DANKA DCT ROSAX DCT LEMSI DCT PIMEX DCT ANFEV DCT PENOR DCT BODLA DCT MILGU DCT AMOSA N869 TEDGO T724 RILAX
Aircraft A321/M-SDE3FGHIRWY/LB1

Departure

Time 2026-05-05 11:34
Airport Helsinki Vantaa Airport (EFHK)

Arrival

Time 2026-05-05 14:12
Airport Zürich Airport (LSZH)
Time Latitude Longitude Altitude Speed Heading
2026-05-05 10:55 60.31748 24.96145 164 ft 0 kts 149°
2026-05-05 11:25 60.31761 24.96128 163 ft 2 kts 140°
2026-05-05 11:25 60.31773 24.96104 163 ft 2 kts 132°
2026-05-05 11:26 60.31784 24.96079 163 ft 2 kts 103°
2026-05-05 11:26 60.31785 24.96046 163 ft 2 kts 71°
2026-05-05 11:26 60.31779 24.96017 163 ft 2 kts 52°
2026-05-05 11:26 60.31776 24.96009 164 ft 0 kts 48°
2026-05-05 11:28 60.31792 24.96044 149 ft 8 kts 47°
2026-05-05 11:29 60.31837 24.96130 164 ft 8 kts 28°
2026-05-05 11:29 60.31883 24.96108 165 ft 8 kts 322°
2026-05-05 11:29 60.31931 24.96024 168 ft 11 kts 317°
2026-05-05 11:29 60.31985 24.95923 171 ft 9 kts 317°
2026-05-05 11:30 60.32038 24.95826 173 ft 14 kts 317°
2026-05-05 11:30 60.32127 24.95659 173 ft 22 kts 317°
2026-05-05 11:30 60.32242 24.95445 175 ft 21 kts 317°
2026-05-05 11:30 60.32350 24.95267 177 ft 19 kts 334°
2026-05-05 11:31 60.32468 24.95189 179 ft 17 kts 341°
2026-05-05 11:31 60.32576 24.95119 181 ft 16 kts 342°
2026-05-05 11:31 60.32700 24.95035 179 ft 23 kts 341°
2026-05-05 11:31 60.32875 24.94919 174 ft 29 kts 339°
2026-05-05 11:32 60.32985 24.94741 178 ft 17 kts 317°
2026-05-05 11:32 60.33043 24.94598 183 ft 10 kts 284°
2026-05-05 11:32 60.33049 24.94479 185 ft 9 kts 273°
2026-05-05 11:32 60.33053 24.94332 186 ft 11 kts 272°
2026-05-05 11:33 60.33029 24.94203 193 ft 11 kts 228°
2026-05-05 11:33 60.32909 24.93935 180 ft 54 kts 228°
2026-05-05 11:33 60.32503 24.93044 176 ft 115 kts 227°
2026-05-05 11:33 60.31852 24.91590 154 ft 162 kts 230°
2026-05-05 11:34 60.31093 24.89922 734 ft 159 kts 232°
2026-05-05 11:34 60.30394 24.88201 1422 ft 158 kts 243°
2026-05-05 11:34 60.29944 24.86070 1704 ft 175 kts 258°
2026-05-05 11:34 60.29847 24.83503 1904 ft 195 kts 275°
2026-05-05 11:35 60.30162 24.80633 2115 ft 223 kts 284°
2026-05-05 11:35 60.30378 24.77424 2626 ft 239 kts 262°
2026-05-05 11:35 60.29881 24.74208 3538 ft 240 kts 251°
2026-05-05 11:35 60.29229 24.71053 4342 ft 246 kts 248°
2026-05-05 11:36 60.28525 24.67893 5198 ft 248 kts 248°
2026-05-05 11:36 60.27813 24.64723 6033 ft 249 kts 248°
2026-05-05 11:36 60.27115 24.61535 6827 ft 249 kts 248°
2026-05-05 11:36 60.26448 24.58378 7664 ft 247 kts 248°
2026-05-05 11:37 60.25770 24.55183 8549 ft 244 kts 248°
2026-05-05 11:37 60.25126 24.52108 9455 ft 239 kts 248°
2026-05-05 11:37 60.24232 24.49304 10234 ft 241 kts 230°
2026-05-05 11:37 60.22845 24.47351 10961 ft 250 kts 212°
2026-05-05 11:38 60.21155 24.46207 11384 ft 266 kts 207°
2026-05-05 11:38 60.19333 24.44966 11476 ft 286 kts 207°
2026-05-05 11:38 60.17392 24.43608 11624 ft 305 kts 206°
2026-05-05 11:38 60.15325 24.42222 11802 ft 321 kts 206°
2026-05-05 11:39 60.13166 24.40763 12123 ft 331 kts 206°
2026-05-05 11:39 60.10973 24.39266 12673 ft 334 kts 206°
2026-05-05 11:39 60.08763 24.37756 13215 ft 337 kts 206°
2026-05-05 11:39 60.06535 24.36243 13747 ft 339 kts 206°
2026-05-05 11:40 60.04286 24.34717 14222 ft 342 kts 206°
2026-05-05 11:40 60.02027 24.33191 14695 ft 345 kts 206°
2026-05-05 11:40 59.99748 24.31652 15171 ft 347 kts 206°
2026-05-05 11:40 59.97456 24.30103 15601 ft 349 kts 206°
2026-05-05 11:41 59.95140 24.28545 16020 ft 352 kts 206°
2026-05-05 11:41 59.92811 24.26985 16422 ft 354 kts 206°
2026-05-05 11:41 59.90468 24.25414 16811 ft 357 kts 206°
2026-05-05 11:41 59.88111 24.23836 17198 ft 359 kts 206°
2026-05-05 11:42 59.85767 24.22272 17581 ft 361 kts 206°
2026-05-05 11:42 59.83377 24.20676 17968 ft 363 kts 206°
2026-05-05 11:42 59.80972 24.19071 18305 ft 365 kts 206°
2026-05-05 11:42 59.78560 24.17461 18648 ft 367 kts 206°
2026-05-05 11:43 59.76130 24.15847 19007 ft 369 kts 205°
2026-05-05 11:43 59.73729 24.14101 19359 ft 366 kts 211°
2026-05-05 11:43 59.71542 24.11617 19716 ft 360 kts 220°
2026-05-05 11:43 59.69501 24.08721 20087 ft 361 kts 221°
2026-05-05 11:44 59.67458 24.05813 20460 ft 363 kts 221°
2026-05-05 11:44 59.65404 24.02898 20840 ft 364 kts 221°
2026-05-05 11:44 59.63335 23.99977 21219 ft 366 kts 221°
2026-05-05 11:44 59.61259 23.97053 21599 ft 368 kts 221°
2026-05-05 11:45 59.59184 23.94133 21970 ft 369 kts 221°
2026-05-05 11:45 59.57077 23.91165 22349 ft 371 kts 221°
2026-05-05 11:45 59.54973 23.88202 22716 ft 372 kts 221°
2026-05-05 11:45 59.52857 23.85236 23057 ft 374 kts 221°
2026-05-05 11:46 59.50728 23.82257 23401 ft 376 kts 221°
2026-05-05 11:46 59.48592 23.79272 23690 ft 377 kts 222°
2026-05-05 11:46 59.46649 23.75857 23960 ft 373 kts 231°
2026-05-05 11:46 59.44923 23.72134 24234 ft 374 kts 231°
2026-05-05 11:47 59.43164 23.68349 24517 ft 376 kts 231°
2026-05-05 11:47 59.41392 23.64551 24791 ft 378 kts 231°
2026-05-05 11:47 59.39610 23.60746 25066 ft 380 kts 231°
2026-05-05 11:47 59.37815 23.56925 25329 ft 382 kts 231°
2026-05-05 11:48 59.34199 23.49228 25847 ft 385 kts 231°
2026-05-05 11:48 59.32379 23.45366 26102 ft 387 kts 231°
2026-05-05 11:48 59.30547 23.41487 26337 ft 389 kts 231°
2026-05-05 11:49 59.28705 23.37600 26560 ft 390 kts 231°
2026-05-05 11:49 59.26852 23.33704 26777 ft 392 kts 230°
2026-05-05 11:49 59.24990 23.29793 26982 ft 393 kts 230°
2026-05-05 11:49 59.23124 23.25877 27180 ft 395 kts 230°
2026-05-05 11:50 59.21248 23.21936 27366 ft 396 kts 230°
2026-05-05 11:50 59.19369 23.17995 27556 ft 397 kts 230°
2026-05-05 11:50 59.17483 23.14057 27816 ft 397 kts 230°
2026-05-05 11:50 59.15600 23.10130 28080 ft 396 kts 230°
2026-05-05 11:51 59.13745 23.06267 28325 ft 395 kts 230°
2026-05-05 11:51 59.11867 23.02357 28573 ft 395 kts 230°
2026-05-05 11:51 59.09995 22.98458 28816 ft 395 kts 230°
2026-05-05 11:51 59.08119 22.94559 29062 ft 394 kts 230°
2026-05-05 11:52 59.06242 22.90672 29315 ft 394 kts 230°
2026-05-05 11:52 59.04364 22.86802 29539 ft 394 kts 230°
2026-05-05 11:52 59.02485 22.82940 29766 ft 393 kts 230°
2026-05-05 11:52 59.00603 22.79077 29985 ft 393 kts 230°
2026-05-05 11:53 58.98728 22.75226 30184 ft 393 kts 230°
2026-05-05 11:53 58.96854 22.71374 30382 ft 393 kts 230°
2026-05-05 11:53 58.94980 22.67524 30579 ft 392 kts 230°
2026-05-05 11:53 58.93106 22.63687 30784 ft 392 kts 230°
2026-05-05 11:54 58.91230 22.59854 30985 ft 392 kts 230°
2026-05-05 11:54 58.89351 22.56024 31186 ft 392 kts 230°
2026-05-05 11:54 58.87474 22.52207 31397 ft 392 kts 230°
2026-05-05 11:54 58.85597 22.48395 31605 ft 391 kts 230°
2026-05-05 11:55 58.83721 22.44593 31812 ft 391 kts 230°
2026-05-05 11:55 58.81844 22.40799 32023 ft 391 kts 230°
2026-05-05 11:55 58.79967 22.37002 32219 ft 391 kts 230°
2026-05-05 11:55 58.78117 22.33258 32427 ft 391 kts 230°
2026-05-05 11:56 58.76243 22.29471 32624 ft 390 kts 229°
2026-05-05 11:56 58.74363 22.25685 32832 ft 390 kts 229°
2026-05-05 11:56 58.72490 22.21927 33038 ft 390 kts 229°
2026-05-05 11:56 58.70610 22.18166 33233 ft 389 kts 229°
2026-05-05 11:57 58.68732 22.14413 33437 ft 389 kts 229°
2026-05-05 11:57 58.66856 22.10667 33627 ft 389 kts 229°
2026-05-05 11:57 58.64980 22.06923 33803 ft 389 kts 229°
2026-05-05 11:57 58.63102 22.03183 33860 ft 388 kts 229°
2026-05-05 11:58 58.59361 21.95747 33862 ft 387 kts 229°
2026-05-05 11:58 58.55626 21.88339 33863 ft 387 kts 229°
2026-05-05 11:59 58.51879 21.80937 33862 ft 387 kts 229°
2026-05-05 11:59 58.48125 21.73552 33863 ft 387 kts 229°
2026-05-05 12:00 58.44360 21.66182 33860 ft 387 kts 229°
2026-05-05 12:00 58.40620 21.58890 33853 ft 387 kts 229°
2026-05-05 12:01 58.36848 21.51548 33852 ft 387 kts 229°
2026-05-05 12:01 58.33076 21.44213 33860 ft 387 kts 229°
2026-05-05 12:02 58.29297 21.36898 33859 ft 388 kts 229°
2026-05-05 12:02 58.25510 21.29589 33854 ft 388 kts 228°
2026-05-05 12:03 58.21709 21.22301 33854 ft 389 kts 228°
2026-05-05 12:03 58.17829 21.15143 33853 ft 390 kts 226°
2026-05-05 12:04 58.13865 21.08132 33849 ft 390 kts 226°
2026-05-05 12:04 58.09892 21.01129 33850 ft 391 kts 226°
2026-05-05 12:05 58.05921 20.94102 33851 ft 391 kts 226°
2026-05-05 12:05 58.01949 20.87068 33851 ft 392 kts 226°
2026-05-05 12:06 57.97968 20.80046 33854 ft 392 kts 226°
2026-05-05 12:06 57.94652 20.74212 33857 ft 393 kts 226°
2026-05-05 12:07 57.89998 20.66054 33858 ft 393 kts 226°
2026-05-05 12:07 57.85985 20.59056 33864 ft 394 kts 226°
2026-05-05 12:08 57.82643 20.53245 33868 ft 394 kts 226°
2026-05-05 12:08 57.78619 20.46258 33865 ft 394 kts 226°
2026-05-05 12:09 57.74590 20.39282 33870 ft 395 kts 226°
2026-05-05 12:09 57.70551 20.32308 33871 ft 395 kts 226°
2026-05-05 12:10 57.66506 20.25352 33871 ft 395 kts 225°
2026-05-05 12:10 57.62449 20.18423 33869 ft 395 kts 225°
2026-05-05 12:11 57.58390 20.11515 33869 ft 395 kts 225°
2026-05-05 12:11 57.54331 20.04602 33873 ft 395 kts 225°
2026-05-05 12:12 57.50266 19.97690 33868 ft 396 kts 225°
2026-05-05 12:12 57.46201 19.90800 33868 ft 396 kts 225°
2026-05-05 12:13 57.42154 19.83962 33869 ft 396 kts 225°
2026-05-05 12:13 57.38075 19.77102 33872 ft 396 kts 225°
2026-05-05 12:14 57.33988 19.70253 33875 ft 396 kts 225°
2026-05-05 12:14 57.29898 19.63426 33885 ft 396 kts 225°
2026-05-05 12:15 57.25802 19.56609 33878 ft 396 kts 225°
2026-05-05 12:15 57.21708 19.49812 33879 ft 396 kts 225°
2026-05-05 12:16 57.17613 19.43035 33889 ft 395 kts 225°
2026-05-05 12:16 57.13517 19.36285 33889 ft 395 kts 225°
2026-05-05 12:17 57.09422 19.29539 33889 ft 395 kts 225°
2026-05-05 12:17 57.05321 19.22815 33884 ft 395 kts 225°
2026-05-05 12:18 57.01213 19.16101 33884 ft 395 kts 225°
2026-05-05 12:18 56.97109 19.09403 33885 ft 395 kts 225°
2026-05-05 12:19 56.92995 19.02724 33889 ft 395 kts 225°
2026-05-05 12:19 56.88874 18.96048 33889 ft 395 kts 224°
2026-05-05 12:20 56.84785 18.89440 33892 ft 395 kts 224°
2026-05-05 12:20 56.80662 18.82806 33894 ft 395 kts 224°
2026-05-05 12:21 56.76532 18.76182 33896 ft 395 kts 224°
2026-05-05 12:21 56.72402 18.69572 33895 ft 395 kts 224°
2026-05-05 12:22 56.68268 18.62971 33900 ft 395 kts 224°
2026-05-05 12:22 56.64131 18.56382 33898 ft 395 kts 224°
2026-05-05 12:23 56.59983 18.49803 33900 ft 395 kts 224°
2026-05-05 12:23 56.55834 18.43252 33901 ft 395 kts 224°
2026-05-05 12:24 56.51708 18.36758 33899 ft 395 kts 224°
2026-05-05 12:24 56.47556 18.30235 33902 ft 395 kts 224°
2026-05-05 12:25 56.43396 18.23713 33900 ft 395 kts 224°
2026-05-05 12:25 56.39243 18.17211 33907 ft 395 kts 224°
2026-05-05 12:26 56.35084 18.10730 33909 ft 395 kts 223°
2026-05-05 12:26 56.30914 18.04267 33902 ft 395 kts 223°
2026-05-05 12:27 56.26744 17.97810 33915 ft 395 kts 223°
2026-05-05 12:27 56.22574 17.91370 33914 ft 395 kts 223°
2026-05-05 12:28 56.18402 17.84950 33908 ft 395 kts 223°
2026-05-05 12:28 56.14222 17.78533 33912 ft 395 kts 223°
2026-05-05 12:29 56.10039 17.72128 33909 ft 395 kts 223°
2026-05-05 12:29 56.05878 17.65784 33909 ft 395 kts 223°
2026-05-05 12:30 56.01688 17.59418 33912 ft 395 kts 223°
2026-05-05 12:30 55.97495 17.53066 33915 ft 395 kts 223°
2026-05-05 12:31 55.93299 17.46713 33918 ft 395 kts 223°
2026-05-05 12:31 55.89097 17.40379 33913 ft 395 kts 223°
2026-05-05 12:32 55.84891 17.34059 33914 ft 396 kts 223°
2026-05-05 12:32 55.80683 17.27760 33915 ft 396 kts 222°
2026-05-05 12:33 55.75894 17.22850 33922 ft 404 kts 203°
2026-05-05 12:33 55.70520 17.19851 33912 ft 405 kts 202°
2026-05-05 12:34 55.65158 17.16787 33916 ft 403 kts 206°
2026-05-05 12:34 55.60394 17.11820 33917 ft 397 kts 218°
2026-05-05 12:35 55.55915 17.06215 33918 ft 397 kts 218°
2026-05-05 12:35 55.51393 17.00615 33917 ft 397 kts 218°
2026-05-05 12:36 55.46864 16.95001 33923 ft 398 kts 218°
2026-05-05 12:36 55.42329 16.89401 33924 ft 398 kts 218°
2026-05-05 12:37 55.37796 16.83823 33922 ft 398 kts 218°
2026-05-05 12:37 55.33252 16.78245 33927 ft 398 kts 218°
2026-05-05 12:38 55.28713 16.72667 33923 ft 398 kts 218°
2026-05-05 12:38 55.24203 16.67142 33928 ft 398 kts 217°
2026-05-05 12:39 55.19645 16.61587 33928 ft 399 kts 217°
2026-05-05 12:39 55.15077 16.56062 33930 ft 399 kts 217°
2026-05-05 12:40 55.10513 16.50544 33933 ft 399 kts 217°
2026-05-05 12:40 55.05952 16.45026 33934 ft 399 kts 217°
2026-05-05 12:41 55.01384 16.39510 33930 ft 399 kts 217°
2026-05-05 12:41 54.96811 16.34022 33929 ft 399 kts 217°
2026-05-05 12:42 54.92230 16.28544 33933 ft 399 kts 217°
2026-05-05 12:42 54.87648 16.23076 33921 ft 400 kts 217°
2026-05-05 12:43 54.83092 16.17648 33931 ft 400 kts 217°
2026-05-05 12:43 54.78499 16.12189 33927 ft 400 kts 217°
2026-05-05 12:44 54.73900 16.06740 33927 ft 400 kts 217°
2026-05-05 12:44 54.69301 16.01317 33927 ft 401 kts 217°
2026-05-05 12:45 54.64686 15.95881 33927 ft 401 kts 217°
2026-05-05 12:45 54.60075 15.90454 33925 ft 401 kts 217°
2026-05-05 12:46 54.55456 15.85048 33928 ft 401 kts 217°
2026-05-05 12:46 54.50833 15.79658 33928 ft 401 kts 217°
2026-05-05 12:47 54.46217 15.74273 33931 ft 401 kts 217°
2026-05-05 12:47 54.41597 15.68900 33934 ft 401 kts 217°
2026-05-05 12:48 54.36996 15.63568 33951 ft 401 kts 217°
2026-05-05 12:48 54.32362 15.58222 33940 ft 401 kts 217°
2026-05-05 12:49 54.27734 15.52899 33940 ft 401 kts 217°
2026-05-05 12:49 54.23099 15.47572 33923 ft 401 kts 217°
2026-05-05 12:50 54.18470 15.42265 33913 ft 401 kts 217°
2026-05-05 12:50 54.13826 15.36966 33923 ft 401 kts 217°
2026-05-05 12:51 54.09186 15.31684 33915 ft 401 kts 217°
2026-05-05 12:51 54.04576 15.26436 33912 ft 401 kts 217°
2026-05-05 12:52 53.99929 15.21167 33914 ft 402 kts 217°
2026-05-05 12:52 53.95274 15.15917 33918 ft 402 kts 217°
2026-05-05 12:53 53.90603 15.10659 33905 ft 402 kts 217°
2026-05-05 12:53 53.85930 15.05404 33903 ft 402 kts 217°
2026-05-05 12:54 53.78924 14.97551 33901 ft 403 kts 217°
2026-05-05 12:55 53.74235 14.92325 33899 ft 403 kts 217°
2026-05-05 12:55 53.69588 14.87149 33901 ft 404 kts 217°
2026-05-05 12:56 53.64894 14.81932 33897 ft 404 kts 217°
2026-05-05 12:56 53.60200 14.76729 33898 ft 404 kts 217°
2026-05-05 12:57 53.55495 14.71531 33900 ft 404 kts 217°
2026-05-05 12:57 53.50792 14.66360 33901 ft 404 kts 217°
2026-05-05 12:58 53.46085 14.61189 33899 ft 404 kts 217°
2026-05-05 12:58 53.41375 14.56036 33901 ft 404 kts 217°
2026-05-05 12:59 53.36665 14.50899 33896 ft 404 kts 217°
2026-05-05 12:59 53.31956 14.45768 33903 ft 404 kts 217°
2026-05-05 13:00 53.25557 14.39282 33908 ft 406 kts 211°
2026-05-05 13:01 53.14648 14.30096 33902 ft 405 kts 211°
2026-05-05 13:01 53.09613 14.25871 33906 ft 405 kts 211°
2026-05-05 13:02 53.05426 14.22372 33905 ft 405 kts 211°
2026-05-05 13:02 53.00397 14.18180 33904 ft 404 kts 211°
2026-05-05 13:03 52.95374 14.13987 33903 ft 404 kts 211°
2026-05-05 13:03 52.90353 14.09815 33898 ft 404 kts 211°
2026-05-05 13:04 52.85330 14.05658 33892 ft 403 kts 211°
2026-05-05 13:04 52.80317 14.01509 33891 ft 403 kts 211°
2026-05-05 13:05 52.75307 13.97371 33886 ft 403 kts 211°
2026-05-05 13:05 52.70293 13.93246 33882 ft 402 kts 211°
2026-05-05 13:06 52.65282 13.89134 33877 ft 402 kts 211°
2026-05-05 13:06 52.60275 13.85033 33872 ft 402 kts 211°
2026-05-05 13:07 52.55288 13.80966 33860 ft 402 kts 211°
2026-05-05 13:07 52.50269 13.76881 33855 ft 403 kts 211°
2026-05-05 13:08 52.45241 13.72804 33848 ft 403 kts 211°
2026-05-05 13:08 52.40203 13.68732 33844 ft 404 kts 211°
2026-05-05 13:09 52.35161 13.64662 33843 ft 404 kts 210°
2026-05-05 13:09 52.30104 13.60586 33843 ft 405 kts 210°
2026-05-05 13:10 52.25048 13.56521 33845 ft 405 kts 210°
2026-05-05 13:10 52.19987 13.52458 33847 ft 406 kts 210°
2026-05-05 13:11 52.14912 13.48402 33850 ft 406 kts 210°
2026-05-05 13:11 52.09866 13.44385 33849 ft 407 kts 210°
2026-05-05 13:12 52.04779 13.40344 33854 ft 407 kts 210°
2026-05-05 13:12 51.99697 13.36299 33850 ft 407 kts 210°
2026-05-05 13:13 51.94603 13.32266 33847 ft 407 kts 210°
2026-05-05 13:13 51.89504 13.28245 33846 ft 408 kts 210°
2026-05-05 13:14 51.84398 13.24236 33847 ft 408 kts 210°
2026-05-05 13:14 51.79289 13.20226 33845 ft 408 kts 210°
2026-05-05 13:15 51.74179 13.16219 33850 ft 408 kts 210°
2026-05-05 13:15 51.69070 13.12223 33850 ft 408 kts 210°
2026-05-05 13:16 51.63958 13.08239 33851 ft 408 kts 210°
2026-05-05 13:16 51.58840 13.04266 33854 ft 408 kts 209°
2026-05-05 13:17 51.54103 12.99473 33843 ft 404 kts 218°
2026-05-05 13:17 51.49506 12.94249 33840 ft 405 kts 218°
2026-05-05 13:18 51.44893 12.89049 33838 ft 406 kts 217°
2026-05-05 13:18 51.40269 12.83853 33835 ft 406 kts 217°
2026-05-05 13:19 51.35642 12.78659 33845 ft 406 kts 217°
2026-05-05 13:19 51.31015 12.73449 33841 ft 407 kts 217°
2026-05-05 13:20 51.26373 12.68253 33839 ft 408 kts 217°
2026-05-05 13:20 51.21719 12.63073 33833 ft 408 kts 217°
2026-05-05 13:21 51.17058 12.57898 33839 ft 409 kts 217°
2026-05-05 13:21 51.12390 12.52715 33853 ft 409 kts 217°
2026-05-05 13:22 51.07722 12.47546 33854 ft 409 kts 217°
2026-05-05 13:22 51.03046 12.42388 33856 ft 409 kts 217°
2026-05-05 13:23 50.98368 12.37234 33858 ft 409 kts 217°
2026-05-05 13:23 50.93718 12.32117 33856 ft 409 kts 217°
2026-05-05 13:24 50.89038 12.26990 33849 ft 409 kts 216°
2026-05-05 13:24 50.84354 12.21869 33841 ft 409 kts 216°
2026-05-05 13:25 50.79667 12.16760 33836 ft 409 kts 216°
2026-05-05 13:25 50.74976 12.11657 33826 ft 409 kts 216°
2026-05-05 13:26 50.70281 12.06566 33824 ft 409 kts 216°
2026-05-05 13:26 50.65581 12.01485 33818 ft 409 kts 216°
2026-05-05 13:27 50.60880 11.96415 33816 ft 410 kts 216°
2026-05-05 13:27 50.56177 11.91344 33820 ft 410 kts 216°
2026-05-05 13:28 50.51506 11.86320 33821 ft 410 kts 216°
2026-05-05 13:28 50.46758 11.81233 33821 ft 410 kts 216°
2026-05-05 13:29 50.42074 11.76228 33822 ft 410 kts 215°
2026-05-05 13:29 50.37357 11.71197 33828 ft 410 kts 215°
2026-05-05 13:30 50.32635 11.66167 33829 ft 410 kts 215°
2026-05-05 13:30 50.27913 11.61161 33823 ft 410 kts 215°
2026-05-05 13:31 50.23194 11.56161 33822 ft 410 kts 215°
2026-05-05 13:31 50.18470 11.51176 33819 ft 409 kts 215°
2026-05-05 13:32 50.13749 11.46197 33814 ft 409 kts 215°
2026-05-05 13:32 50.09033 11.41242 33808 ft 408 kts 214°
2026-05-05 13:33 50.04324 11.36308 33808 ft 408 kts 214°
2026-05-05 13:33 49.99619 11.31385 33806 ft 407 kts 214°
2026-05-05 13:34 49.94925 11.26487 33802 ft 406 kts 214°
2026-05-05 13:34 49.90229 11.21601 33799 ft 406 kts 214°
2026-05-05 13:35 49.85564 11.16753 33800 ft 406 kts 214°
2026-05-05 13:35 49.80880 11.11890 33797 ft 405 kts 214°
2026-05-05 13:36 49.76192 11.07047 33795 ft 405 kts 214°
2026-05-05 13:36 49.71502 11.02210 33790 ft 405 kts 214°
2026-05-05 13:37 49.66819 10.97389 33792 ft 404 kts 213°
2026-05-05 13:37 49.62137 10.92590 33787 ft 404 kts 213°
2026-05-05 13:38 49.57452 10.87800 33790 ft 404 kts 213°
2026-05-05 13:38 49.52776 10.83023 33787 ft 403 kts 213°
2026-05-05 13:39 49.48538 10.77377 33788 ft 404 kts 224°
2026-05-05 13:39 49.44636 10.71214 33824 ft 405 kts 224°
2026-05-05 13:40 49.40703 10.65030 33826 ft 405 kts 224°
2026-05-05 13:40 49.36809 10.58774 33825 ft 406 kts 224°
2026-05-05 13:41 49.32923 10.52488 33828 ft 406 kts 223°
2026-05-05 13:41 49.28940 10.46351 33820 ft 406 kts 222°
2026-05-05 13:42 49.24914 10.40277 33810 ft 407 kts 222°
2026-05-05 13:42 49.20892 10.34159 33810 ft 407 kts 223°
2026-05-05 13:43 49.16918 10.27977 33807 ft 408 kts 223°
2026-05-05 13:43 49.13076 10.21572 33805 ft 411 kts 229°
2026-05-05 13:44 49.09502 10.14749 33818 ft 412 kts 228°
2026-05-05 13:44 49.05904 10.07956 33819 ft 412 kts 228°
2026-05-05 13:45 49.02322 10.01213 33818 ft 412 kts 228°
2026-05-05 13:45 48.98712 9.94418 33820 ft 413 kts 228°
2026-05-05 13:46 48.95102 9.87624 33822 ft 413 kts 228°
2026-05-05 13:46 48.91483 9.80822 33825 ft 414 kts 227°
2026-05-05 13:47 48.87847 9.74038 33830 ft 414 kts 227°
2026-05-05 13:47 48.84202 9.67264 33830 ft 415 kts 227°
2026-05-05 13:48 48.80553 9.60477 33833 ft 415 kts 227°
2026-05-05 13:48 48.76900 9.53678 33841 ft 416 kts 227°
2026-05-05 13:49 48.73253 9.46933 33845 ft 417 kts 227°
2026-05-05 13:49 48.69572 9.40146 33848 ft 417 kts 227°
2026-05-05 13:50 48.65883 9.33361 33852 ft 418 kts 226°
2026-05-05 13:50 48.62127 9.26640 33851 ft 416 kts 221°
2026-05-05 13:51 48.57639 9.21218 33849 ft 413 kts 213°
2026-05-05 13:51 48.53007 9.16067 33844 ft 414 kts 213°
2026-05-05 13:52 48.48372 9.10890 33836 ft 415 kts 213°
2026-05-05 13:52 48.43729 9.05700 33834 ft 416 kts 213°
2026-05-05 13:53 48.39070 9.00508 33823 ft 417 kts 213°
2026-05-05 13:53 48.34394 8.95322 33824 ft 418 kts 213°
2026-05-05 13:54 48.30481 8.91006 32546 ft 426 kts 213°
2026-05-05 13:54 48.28088 8.88361 31474 ft 425 kts 214°
2026-05-05 13:54 48.25731 8.85733 30635 ft 423 kts 214°
2026-05-05 13:55 48.23356 8.83083 29641 ft 428 kts 214°
2026-05-05 13:55 48.20951 8.80407 28605 ft 432 kts 214°
2026-05-05 13:55 48.18526 8.77717 27565 ft 435 kts 214°
2026-05-05 13:55 48.16078 8.75009 26464 ft 439 kts 214°
2026-05-05 13:56 48.13607 8.72299 25618 ft 439 kts 214°
2026-05-05 13:56 48.11153 8.69622 24927 ft 434 kts 214°
2026-05-05 13:56 48.08720 8.66980 24183 ft 431 kts 214°
2026-05-05 13:56 48.06299 8.64360 23456 ft 428 kts 214°
2026-05-05 13:57 48.03890 8.61759 22671 ft 424 kts 215°
2026-05-05 13:57 48.01518 8.59198 22013 ft 417 kts 215°
2026-05-05 13:57 47.99115 8.56830 21355 ft 410 kts 207°
2026-05-05 13:57 47.96476 8.55346 20722 ft 404 kts 193°
2026-05-05 13:58 47.93744 8.54892 20118 ft 398 kts 179°
2026-05-05 13:58 47.90986 8.55468 19462 ft 394 kts 166°
2026-05-05 13:58 47.88499 8.56980 18845 ft 391 kts 152°
2026-05-05 13:58 47.86217 8.59152 18284 ft 386 kts 148°
2026-05-05 13:59 47.81767 8.63457 17259 ft 376 kts 149°
2026-05-05 13:59 47.79575 8.65563 16731 ft 373 kts 149°
2026-05-05 14:00 47.75262 8.69708 15751 ft 369 kts 150°
2026-05-05 14:00 47.73109 8.71777 15241 ft 367 kts 150°
2026-05-05 14:00 47.70967 8.73839 14733 ft 365 kts 150°
2026-05-05 14:00 47.68748 8.75579 14206 ft 358 kts 165°
2026-05-05 14:01 47.66328 8.76158 13691 ft 350 kts 183°
2026-05-05 14:01 47.63953 8.75638 13119 ft 342 kts 199°
2026-05-05 14:01 47.61822 8.74149 12540 ft 337 kts 215°
2026-05-05 14:01 47.60112 8.71819 11959 ft 334 kts 232°
2026-05-05 14:02 47.58960 8.68856 11367 ft 333 kts 248°
2026-05-05 14:02 47.58463 8.65517 10844 ft 332 kts 265°
2026-05-05 14:02 47.58661 8.62184 10703 ft 320 kts 280°
2026-05-05 14:02 47.59446 8.59158 10582 ft 310 kts 296°
2026-05-05 14:03 47.60720 8.56652 10456 ft 302 kts 311°
2026-05-05 14:03 47.62239 8.54563 10255 ft 293 kts 313°
2026-05-05 14:03 47.63722 8.52536 9989 ft 288 kts 312°
2026-05-05 14:03 47.65185 8.50528 9783 ft 286 kts 312°
2026-05-05 14:04 47.66638 8.48526 9650 ft 285 kts 312°
2026-05-05 14:04 47.68075 8.46547 9520 ft 285 kts 312°
2026-05-05 14:04 47.69547 8.44523 9373 ft 285 kts 312°
2026-05-05 14:04 47.70980 8.42554 9011 ft 284 kts 312°
2026-05-05 14:05 47.72424 8.40569 8579 ft 282 kts 312°
2026-05-05 14:05 47.73621 8.38350 8166 ft 271 kts 290°
2026-05-05 14:05 47.73989 8.35694 7758 ft 260 kts 263°
2026-05-05 14:05 47.73510 8.33165 7342 ft 255 kts 239°
2026-05-05 14:06 47.72392 8.31125 6962 ft 255 kts 227°
2026-05-05 14:06 47.71174 8.29203 6618 ft 255 kts 225°
2026-05-05 14:06 47.69712 8.27751 6238 ft 256 kts 200°
2026-05-05 14:06 47.67938 8.27541 5745 ft 263 kts 172°
2026-05-05 14:07 47.66262 8.28765 5115 ft 279 kts 141°
2026-05-05 14:07 47.64870 8.30731 4876 ft 271 kts 140°
2026-05-05 14:07 47.63525 8.32597 4724 ft 259 kts 140°
2026-05-05 14:07 47.62233 8.34373 4614 ft 248 kts 140°
2026-05-05 14:08 47.60989 8.36082 4499 ft 241 kts 140°
2026-05-05 14:08 47.59765 8.37764 4405 ft 240 kts 141°
2026-05-05 14:08 47.58538 8.39449 4172 ft 241 kts 140°
2026-05-05 14:08 47.57304 8.41143 3866 ft 243 kts 139°
2026-05-05 14:09 47.56073 8.42835 3564 ft 237 kts 139°
2026-05-05 14:09 47.54893 8.44456 3241 ft 224 kts 139°
2026-05-05 14:09 47.53811 8.45941 2951 ft 199 kts 137°
2026-05-05 14:09 47.52858 8.47245 2736 ft 178 kts 139°
2026-05-05 14:10 47.51987 8.48439 2487 ft 165 kts 140°
2026-05-05 14:10 47.51167 8.49560 2256 ft 157 kts 140°
2026-05-05 14:10 47.50380 8.50639 2046 ft 153 kts 139°
2026-05-05 14:10 47.49595 8.51708 1781 ft 154 kts 140°
2026-05-05 14:11 47.48808 8.52778 1599 ft 153 kts 139°
2026-05-05 14:11 47.48040 8.53846 1409 ft 152 kts 139°
2026-05-05 14:11 47.47338 8.54795 1405 ft 119 kts 137°
2026-05-05 14:11 47.46861 8.55446 1399 ft 71 kts 137°
2026-05-05 14:12 47.46622 8.55772 1400 ft 28 kts 138°
2026-05-05 14:12 47.46509 8.55887 1396 ft 12 kts 153°
2026-05-05 14:12 47.46461 8.55921 1396 ft 6 kts 158°
2026-05-05 14:12 47.46423 8.55940 1403 ft 9 kts 163°
2026-05-05 14:13 47.46344 8.55969 1405 ft 12 kts 168°
2026-05-05 14:13 47.46268 8.55993 1406 ft 10 kts 168°
2026-05-05 14:13 47.46202 8.56006 1402 ft 8 kts 179°
2026-05-05 14:13 47.46151 8.56000 1399 ft 6 kts 185°
2026-05-05 14:14 47.46079 8.55989 1400 ft 17 kts 186°
2026-05-05 14:14 47.45941 8.55960 1405 ft 20 kts 196°
2026-05-05 14:14 47.45834 8.55897 1406 ft 6 kts 199°
2026-05-05 14:14 47.45826 8.55893 1403 ft 5 kts 199°
2026-05-05 14:15 47.45733 8.55869 1400 ft 16 kts 184°
2026-05-05 14:15 47.45619 8.55854 1397 ft 17 kts 186°
2026-05-05 14:15 47.45533 8.55837 1397 ft 9 kts 195°
2026-05-05 14:15 47.45508 8.55765 1402 ft 8 kts 270°
2026-05-05 14:16 47.45512 8.55688 1399 ft 7 kts 275°
2026-05-05 14:16 47.45518 8.55601 1402 ft 12 kts 276°
2026-05-05 14:16 47.45520 8.55458 1399 ft 13 kts 244°
2026-05-05 14:16 47.45448 8.55459 1400 ft 11 kts 156°
2026-05-05 14:17 47.45383 8.55502 1399 ft 9 kts 155°
2026-05-05 14:17 47.45373 8.55509 1405 ft 0 kts 155°
2026-05-05 14:17 47.45362 8.55517 1400 ft 6 kts 155°
2026-05-05 14:17 47.45311 8.55553 1403 ft 8 kts 155°
2026-05-05 14:18 47.45276 8.55602 1398 ft 6 kts 106°
2026-05-05 14:18 47.45269 8.55661 1397 ft 5 kts 94°
2026-05-05 14:18 47.45285 8.55689 1403 ft 4 kts 19°
2026-05-05 14:18 47.45323 8.55696 1400 ft 4 kts
2026-05-05 14:19 47.45347 8.55700 1401 ft 3 kts
2026-05-05 14:19 47.45350 8.55701 1400 ft 0 kts